Tracking 19564 objects as of 19-Mar-2019
HD Live streaming from Space Station
objects crossing your sky now

FLOCK 2K 39

Track FLOCK 2K 39 now!
10-day predictions
FLOCK 2K 39 is classified as:


NORAD ID: 42866
Int'l Code: 2017-042AT
Perigee: 451.2 km
Apogee: 464.2 km
Inclination: 97.0 °
Period: 93.6 minutes
Semi major axis: 6828 km
RCS: Unknown
Launch date: July 14, 2017
Source: United States (US)
Launch site: TYURATAM MISSILE AND SPACE COMPLEX (TTMTR)
aabbcc
Your satellite tracking list
Your tracking list is empty




NASA's NSSDC Master Catalog

Two Line Element Set (TLE):
1 42866U 17042AT  19077.65446218  .00004199  00000-0  11240-3 0  9994
2 42866  96.9536 325.1953 0009536 186.9983 173.1131 15.38501534 93814
Source of the keplerian elements: AFSPC